GW4674 Weather Reports


Display with metric or nautical units.
time (UTC)temp
F
wind
direction
speed
MPH
gust
MPH
rain 1hr
in
rain 24hr
in
rain mn
in
humidity
%
barometer
mb
20260508220014 60 275 3.0 3.0 0.00 0.01 0.01 47 1017.3
20260508215511 59 20 1.0 3.0 0.00 0.01 0.01 51 1017.3
20260508215008 61 309 0.0 3.0 0.00 0.01 0.01 47 1017.4
20260508214505 59 271 1.0 6.0 0.00 0.01 0.01 47 1017.3
20260508214001 59 216 2.0 7.0 0.00 0.01 0.01 47 1017.3
20260508213459 58 228 2.0 5.0 0.00 0.01 0.01 48 1017.2
20260508212954 60 304 2.0 3.0 0.00 0.01 0.01 44 1017.2
20260508212451 59 314 0.0 6.0 0.00 0.01 0.01 47 1017.5
20260508211947 60 239 4.0 5.0 0.00 0.01 0.01 47 1017.5
20260508211443 60 241 3.0 6.0 0.00 0.01 0.01 46 1017.5
20260508210940 60 300 1.0 6.0 0.00 0.01 0.01 46 1017.3
20260508210437 60 232 2.0 6.0 0.00 0.01 0.01 46 1017.2
20260508205933 59 229 3.0 4.0 0.00 0.01 0.01 49 1017.2
20260508205430 59 347 4.0 4.0 0.00 0.01 0.01 47 1017.3
20260508204926 59 327 2.0 4.0 0.00 0.01 0.01 47 1017.3
20260508204424 59 198 5.0 6.0 0.00 0.01 0.01 47 1017.3
20260508203919 58 243 0.0 4.0 0.00 0.01 0.01 50 1017.1
20260508203416 59 348 6.0 6.0 0.00 0.01 0.01 54 1017.2
20260508202911 58 237 2.0 3.0 0.00 0.01 0.01 54 1017.3
20260508202409 59 252 2.0 6.0 0.00 0.01 0.01 52 1017.1
20260508201906 58 229 2.0 4.0 0.00 0.01 0.01 56 1016.9
20260508201403 58 237 1.0 4.0 0.00 0.01 0.01 64 1017.0
20260508200859 56 337 2.0 4.0 0.00 0.01 0.01 62 1017.2
20260508200356 53 304 3.0 4.0 0.00 0.01 0.01 74 1017.3
20260508195851 52 241 2.0 3.0 0.00 0.01 0.01 75 1017.5
20260508195349 51 198 1.0 6.0 0.00 0.01 0.01 79 1017.6
20260508194845 51 283 0.0 2.0 0.00 0.01 0.01 80 1017.8
20260508194342 51 241 4.0 4.0 0.00 0.01 0.01 82 1017.8
20260508193839 52 230 3.0 4.0 0.00 0.01 0.01 86 1017.9
20260508193336 50 238 1.0 3.0 0.02 0.01 0.01 86 1018.0
20260508192832 49 205 1.0 3.0 0.02 0.01 0.01 86 1018.0
20260508192329 48 203 3.0 4.0 0.00 0.01 0.01 83 1018.1
20260508191826 49 358 2.0 6.0 0.00 0.01 0.01 78 1018.1
20260508191319 53 328 2.0 8.0 0.00 0.01 0.01 66 1018.1
20260508190815 55 326 2.0 5.0 0.00 0.01 0.01 54 1017.9
20260508190312 56 270 0.0 3.0 0.00 0.01 0.01 50 1017.6
20260508185808 56 296 2.0 5.0 0.00 0.01 0.01 48 1017.7
20260508185306 56 325 3.0 10.0 0.00 0.01 0.01 49 1017.5
20260508184756 57 240 4.0 6.0 0.00 0.01 0.01 47 1017.4
20260508184254 58 257 4.0 6.0 0.00 0.01 0.01 46 1017.3
20260508183750 58 258 3.0 9.0 0.00 0.01 0.01 46 1017.1
20260508183247 59 228 2.0 5.0 0.00 0.01 0.01 47 1017.1
20260508182743 60 238 6.0 9.0 0.00 0.01 0.01 44 1017.2
20260508182240 60 233 2.0 4.0 0.00 0.01 0.01 46 1016.8
20260508181736 59 225 3.0 4.0 0.00 0.01 0.01 46 1017.0
20260508181233 58 268 0.0 6.0 0.00 0.01 0.01 48 1017.0
20260508180729 59 294 2.0 7.0 0.00 0.01 0.01 45 1017.0
20260508180226 59 218 1.0 4.0 0.00 0.01 0.01 49 1017.1
20260508175723 59 331 2.0 4.0 0.00 0.01 0.01 50 1017.2
20260508175220 57 328 2.0 4.0 0.00 0.01 0.01 52 1017.4
20260508174718 56 282 1.0 4.0 0.00 0.01 0.01 51 1017.5
20260508174215 55 245 2.0 7.0 0.00 0.01 0.01 50 1017.7
20260508173711 56 216 0.0 4.0 0.00 0.01 0.01 55 1017.8
20260508173207 55 229 2.0 3.0 0.00 0.01 0.01 51 1017.7
20260508172704 56 322 1.0 4.0 0.00 0.01 0.01 51 1017.9
20260508172201 56 320 2.0 2.0 0.00 0.01 0.01 50 1017.6
20260508171657 56 255 4.0 4.0 0.00 0.01 0.01 50 1017.5
20260508171153 56 211 2.0 4.0 0.00 0.01 0.01 46 1017.6
20260508170651 56 52 0.0 4.0 0.00 0.01 0.01 48 1017.4
20260508170148 57 227 1.0 4.0 0.00 0.01 0.01 47 1017.3
20260508165645 58 237 0.0 5.0 0.00 0.01 0.01 44 1017.3
20260508165142 59 306 2.0 5.0 0.00 0.01 0.01 46 1017.3
20260508164638 58 239 3.0 6.0 0.00 0.01 0.01 41 1017.5
20260508164135 57 234 4.0 5.0 0.00 0.01 0.01 44 1017.5
20260508163633 56 263 1.0 6.0 0.00 0.01 0.01 46 1017.7
20260508163130 56 236 4.0 6.0 0.00 0.01 0.01 44 1017.5
20260508162626 57 142 1.0 4.0 0.00 0.01 0.01 46 1017.6
20260508162123 57 253 4.0 9.0 0.00 0.01 0.01 43 1017.5
20260508161619 56 229 3.0 7.0 0.00 0.01 0.01 44 1017.6
20260508161112 57 318 1.0 3.0 0.00 0.01 0.01 48 1017.6
20260508160610 57 293 2.0 5.0 0.00 0.01 0.01 45 1017.7
20260508160107 57 198 2.0 4.0 0.00 0.01 0.01 47 1017.7
20260508155604 56 268 0.0 4.0 0.00 0.01 0.01 47 1017.6
20260508155101 59 250 1.0 4.0 0.00 0.01 0.01 44 1017.8
20260508154558 58 300 2.0 4.0 0.00 0.01 0.01 38 1017.7
20260508154055 60 278 2.0 4.0 0.00 0.01 0.01 42 1017.7
20260508153552 58 308 2.0 4.0 0.00 0.01 0.01 39 1017.7
20260508153048 58 259 3.0 6.0 0.00 0.01 0.01 41 1017.6
20260508152545 58 234 2.0 9.0 0.00 0.01 0.01 38 1017.7
20260508152040 57 251 3.0 8.0 0.00 0.01 0.01 40 1017.6
20260508151537 58 237 2.0 4.0 0.00 0.01 0.01 44 1017.7
20260508151034 57 171 3.0 8.0 0.00 0.01 0.01 42 1017.9
20260508150531 57 253 1.0 4.0 0.00 0.01 0.01 47 1017.8
20260508150026 56 213 5.0 8.0 0.00 0.01 0.01 44 1017.9
20260508145524 56 246 6.0 6.0 0.00 0.01 0.01 45 1018.0
20260508145019 56 282 2.0 5.0 0.00 0.01 0.01 48 1018.1
20260508144517 55 278 0.0 3.0 0.00 0.01 0.01 51 1018.1
20260508144015 54 230 2.0 4.0 0.00 0.01 0.01 54 1018.0
20260508143512 55 311 1.0 4.0 0.00 0.01 0.01 55 1017.8
20260508143009 54 259 1.0 4.0 0.00 0.01 0.01 52 1017.7
20260508142506 55 318 2.0 4.0 0.00 0.01 0.01 58 1017.7
20260508142002 54 233 1.0 3.0 0.00 0.01 0.01 57 1017.9
20260508141459 53 202 2.0 2.0 0.00 0.01 0.01 60 1017.7
20260508140957 53 219 3.0 4.0 0.00 0.01 0.01 61 1017.9
20260508140454 53 294 2.0 3.0 0.00 0.01 0.01 57 1017.9
20260508135949 53 333 0.0 2.0 0.00 0.01 0.01 58 1018.1
20260508135446 52 248 4.0 6.0 0.00 0.01 0.01 64 1018.2
20260508134943 52 241 0.0 5.0 0.00 0.01 0.01 65 1018.1
20260508134439 52 205 4.0 4.0 0.00 0.01 0.01 61 1018.1
20260508133936 51 204 6.0 10.0 0.00 0.01 0.01 58 1017.9
20260508133434 51 10 3.0 3.0 0.00 0.01 0.01 61 1018.2
20260508132930 51 199 2.0 3.0 0.00 0.01 0.01 68 1018.1
20260508132428 50 215 3.0 6.0 0.00 0.01 0.01 68 1017.9
20260508131924 50 168 1.0 4.0 0.00 0.01 0.01 73 1018.0
20260508131420 49 104 1.0 4.0 0.00 0.01 0.01 71 1018.0
20260508130917 49 259 1.0 3.0 0.00 0.01 0.01 72 1018.2
20260508130414 49 338 0.0 3.0 0.00 0.01 0.01 74 1018.4
20260508125909 49 311 3.0 4.0 0.00 0.01 0.01 74 1018.7
20260508125405 49 235 1.0 5.0 0.00 0.01 0.01 74 1018.8
20260508124904 49 228 5.0 6.0 0.00 0.01 0.01 75 1018.5
20260508124401 48 164 4.0 6.0 0.00 0.01 0.01 76 1018.3
20260508123859 48 322 1.0 5.0 0.00 0.01 0.01 78 1018.4
20260508123357 48 187 2.0 3.0 0.00 0.01 0.01 78 1018.5
20260508122853 47 213 3.0 3.0 0.00 0.01 0.01 76 1018.4
20260508122350 47 125 0.0 3.0 0.00 0.01 0.01 77 1018.5
20260508121847 47 217 4.0 4.0 0.00 0.01 0.01 81 1018.5
20260508121345 46 180 2.0 2.0 0.00 0.01 0.01 82 1018.4
20260508120842 46 264 2.0 2.0 0.00 0.01 0.01 84 1018.4
20260508120340 46 201 2.0 4.0 0.00 0.01 0.01 81 1018.4
20260508115837 46 233 2.0 6.0 0.00 0.01 0.01 80 1018.3
20260508115335 45 212 3.0 3.0 0.00 0.01 0.01 83 1018.3
20260508114831 46 208 2.0 3.0 0.00 0.01 0.01 82 1018.2
20260508114329 46 186 1.0 3.0 0.00 0.01 0.01 82 1018.1
20260508113825 45 104 1.0 3.0 0.00 0.01 0.01 83 1018.2
20260508113323 45 304 2.0 3.0 0.00 0.01 0.01 83 1018.3
20260508112819 45 220 0.0 3.0 0.00 0.01 0.01 85 1018.2
20260508112317 44 198 0.0 3.0 0.00 0.01 0.01 87 1018.1
20260508111813 44 194 2.0 3.0 0.00 0.01 0.01 88 1018.1
20260508111310 43 173 3.0 3.0 0.00 0.01 0.01 89 1018.0
20260508110808 43 228 3.0 4.0 0.00 0.01 0.01 88 1018.2
20260508110305 44 222 2.0 2.0 0.00 0.01 0.01 87 1018.0
20260508105805 44 194 3.0 3.0 0.00 0.01 0.01 87 1017.9
20260508105305 44 282 0.0 2.0 0.00 0.01 0.01 85 1017.8
20260508104759 44 185 1.0 2.0 0.00 0.01 0.01 85 1017.9
20260508104255 44 152 2.0 3.0 0.00 0.01 0.01 85 1017.9
20260508103753 44 187 2.0 4.0 0.00 0.01 0.01 87 1017.8
20260508103249 43 199 1.0 2.0 0.00 0.01 0.01 88 1017.8
20260508102747 42 179 2.0 3.0 0.00 0.01 0.01 90 1017.9
20260508102245 42 186 1.0 3.0 0.00 0.01 0.01 90 1017.7
20260508101742 42 185 2.0 3.0 0.00 0.01 0.01 90 1017.5
20260508101239 44 158 2.0 4.0 0.00 0.01 0.01 87 1017.7
20260508100737 44 167 2.0 3.0 0.00 0.01 0.01 87 1017.6
20260508100235 44 154 2.0 3.0 0.00 0.01 0.01 86 1017.6
20260508095730 45 179 2.0 3.0 0.00 0.01 0.01 86 1017.5
20260508095229 45 195 1.0 2.0 0.00 0.01 0.01 87 1017.4
20260508094725 45 172 0.0 2.0 0.00 0.01 0.01 88 1017.4
20260508094222 44 311 0.0 2.0 0.00 0.01 0.01 88 1017.4
20260508093719 44 248 0.0 1.0 0.00 0.01 0.01 89 1017.3
20260508093217 44 168 1.0 2.0 0.00 0.01 0.01 89 1017.2
20260508092714 44 198 1.0 3.0 0.00 0.01 0.01 88 1017.2
20260508092212 44 215 3.0 3.0 0.00 0.01 0.01 87 1017.2
20260508091709 45 177 2.0 3.0 0.00 0.01 0.01 85 1017.1
20260508091206 45 148 1.0 2.0 0.00 0.01 0.01 85 1017.2
20260508090704 45 196 2.0 3.0 0.00 0.01 0.01 85 1017.1
20260508090201 45 219 0.0 2.0 0.00 0.01 0.01 85 1017.1
20260508085657 45 223 2.0 3.0 0.00 0.01 0.01 84 1017.2
20260508085155 45 220 0.0 3.0 0.00 0.01 0.01 86 1017.2
20260508084651 44 237 0.0 3.0 0.00 0.01 0.01 88 1017.3
20260508084148 44 235 2.0 3.0 0.00 0.01 0.01 89 1017.4
20260508083645 44 247 1.0 3.0 0.00 0.01 0.01 89 1017.5
20260508083143 44 194 2.0 3.0 0.00 0.01 0.01 88 1017.4
20260508082638 44 160 0.0 2.0 0.00 0.01 0.01 88 1017.3
20260508082135 44 160 0.0 2.0 0.00 0.01 0.01 87 1017.3
20260508081633 44 295 0.0 2.0 0.00 0.01 0.01 86 1017.3
20260508081129 45 247 2.0 2.0 0.00 0.01 0.01 85 1017.4
20260508080627 45 180 0.0 2.0 0.00 0.01 0.01 84 1017.3
20260508080125 45 191 2.0 2.0 0.00 0.01 0.01 84 1017.3
20260508075620 45 141 0.0 2.0 0.00 0.01 0.01 85 1017.4
20260508075118 45 148 1.0 3.0 0.00 0.01 0.01 86 1017.2
20260508074616 44 152 1.0 3.0 0.00 0.01 0.01 85 1017.3
20260508074112 44 230 2.0 3.0 0.00 0.01 0.01 86 1017.4
20260508073610 44 225 2.0 3.0 0.00 0.01 0.01 86 1017.4
20260508073108 44 194 2.0 3.0 0.00 0.01 0.01 86 1017.4
20260508072602 44 204 2.0 3.0 0.00 0.01 0.01 85 1017.6
20260508072100 44 209 2.0 2.0 0.00 0.01 0.01 85 1017.4
20260508071558 45 198 1.0 3.0 0.00 0.01 0.01 83 1017.3
20260508071056 44 271 0.0 2.0 0.00 0.01 0.01 83 1017.4
20260508070553 45 264 0.0 2.0 0.00 0.01 0.01 84 1017.4
20260508070051 45 229 2.0 4.0 0.00 0.01 0.01 82 1017.6
20260508065548 45 232 2.0 3.0 0.00 0.01 0.01 81 1017.5
20260508065047 44 216 2.0 4.0 0.02 0.01 0.01 82 1017.5
20260508064544 44 203 0.0 4.0 0.02 0.01 0.01 85 1017.7
20260508064041 44 248 3.0 5.0 0.02 0.00 0.00 81 1017.7
20260508063538 45 237 2.0 7.0 0.02 0.00 0.00 79 1017.7
20260508063037 45 263 1.0 6.0 0.00 0.00 0.00 77 1017.6
20260508062534 45 19 3.0 5.0 0.00 0.00 0.00 74 1017.4
20260508062030 44 293 0.0 3.0 0.00 0.00 0.00 79 1017.3
20260508061528 45 197 2.0 3.0 0.00 0.00 0.00 78 1016.8
20260508061025 46 186 1.0 2.0 0.00 0.00 0.00 68 1016.5
20260508060522 46 261 0.0 3.0 0.00 0.00 0.00 66 1016.3
20260508060019 46 225 0.0 2.0 0.00 0.00 0.00 65 1016.3
20260508055509 47 144 0.0 2.0 0.00 0.00 0.00 69 1016.1
20260508055006 47 237 2.0 3.0 0.00 0.00 0.00 66 1016.1
20260508054502 46 127 1.0 3.0 0.00 0.00 0.00 66 1016.1
20260508053959 44 298 0.0 3.0 0.00 0.00 0.00 73 1016.1
20260508053456 43 175 1.0 4.0 0.00 0.00 0.00 83 1016.0
20260508052954 43 202 2.0 3.0 0.00 0.00 0.00 82 1016.1
20260508052451 44 237 3.0 3.0 0.00 0.00 0.00 79 1016.0
20260508051948 44 205 1.0 3.0 0.00 0.00 0.00 78 1015.9
20260508051443 44 258 2.0 3.0 0.00 0.00 0.00 78 1015.8
20260508050940 44 217 1.0 2.0 0.00 0.00 0.00 79 1015.9
20260508050436 44 219 1.0 3.0 0.00 0.00 0.00 77 1015.9
20260508045933 44 183 3.0 3.0 0.00 0.00 0.00 80 1015.8
20260508045430 43 188 1.0 4.0 0.00 0.00 0.00 81 1015.9
20260508044927 43 228 2.0 3.0 0.00 0.00 0.00 81 1016.0
20260508044425 43 294 1.0 2.0 0.00 0.00 0.00 77 1015.4
20260508043925 44 233 2.0 3.0 0.00 0.00 0.00 78 1015.7
20260508043423 44 238 1.0 3.0 0.00 0.00 0.00 77 1015.7
20260508042919 46 180 2.0 2.0 0.00 0.00 0.00 68 1015.9
20260508042418 46 207 2.0 2.0 0.00 0.00 0.00 67 1015.8
20260508041914 46 172 1.0 2.0 0.00 0.00 0.00 65 1015.8
20260508041411 46 128 0.0 2.0 0.00 0.00 0.00 63 1016.0
20260508040907 46 208 1.0 3.0 0.00 0.00 0.00 71 1016.0
20260508040405 46 185 2.0 3.0 0.00 0.00 0.00 70 1016.2
20260508035902 46 181 2.0 4.0 0.00 0.18 0.18 70 1015.9
20260508035359 45 212 2.0 3.0 0.00 0.18 0.18 70 1015.9
20260508034856 46 221 2.0 2.0 0.00 0.18 0.18 68 1016.0
20260508034353 45 66 0.0 3.0 0.00 0.18 0.18 68 1016.0
20260508033850 45 187 1.0 2.0 0.00 0.18 0.18 68 1016.0
20260508033348 45 149 1.0 2.0 0.00 0.18 0.18 69 1016.1
20260508032845 45 163 1.0 2.0 0.00 0.18 0.18 73 1016.1
20260508032343 46 172 1.0 2.0 0.00 0.18 0.18 73 1015.9
20260508031839 47 214 2.0 2.0 0.00 0.18 0.18 70 1016.1
20260508031336 47 170 2.0 3.0 0.00 0.18 0.18 65 1015.9
20260508030832 47 193 2.0 3.0 0.00 0.18 0.18 64 1015.9
20260508030329 46 176 3.0 3.0 0.00 0.18 0.18 68 1016.0
20260508025826 45 172 1.0 4.0 0.00 0.18 0.18 72 1016.2
20260508025323 45 182 0.0 3.0 0.00 0.18 0.18 74 1016.0
20260508024820 46 289 1.0 2.0 0.00 0.18 0.18 71 1016.1
20260508024316 46 170 2.0 2.0 0.00 0.18 0.18 71 1016.0
20260508023813 47 223 2.0 2.0 0.00 0.18 0.18 68 1016.2
20260508023310 47 196 1.0 2.0 0.00 0.18 0.18 68 1016.1
20260508022807 48 156 0.0 2.0 0.00 0.18 0.18 68 1015.9
20260508022306 49 208 2.0 2.0 0.00 0.18 0.18 65 1016.0
20260508021800 49 227 0.0 2.0 0.00 0.18 0.18 61 1015.9
20260508021255 49 182 1.0 2.0 0.00 0.18 0.18 60 1015.9
20260508020752 49 144 2.0 3.0 0.00 0.18 0.18 58 1016.0
20260508020250 48 165 2.0 3.0 0.00 0.18 0.18 59 1016.1
20260508015747 48 190 1.0 3.0 0.00 0.18 0.18 59 1016.0
20260508015244 48 145 0.0 2.0 0.00 0.18 0.18 59 1016.0
20260508014741 48 224 2.0 2.0 0.00 0.18 0.18 58 1016.0
20260508014238 48 214 1.0 3.0 0.00 0.18 0.18 59 1015.8
20260508013733 49 175 1.0 2.0 0.00 0.18 0.18 60 1015.7
20260508013230 49 162 2.0 3.0 0.00 0.18 0.18 57 1015.7
20260508012728 49 185 2.0 3.0 0.00 0.18 0.18 57 1015.9
20260508012224 49 160 2.0 3.0 0.00 0.18 0.18 56 1015.7
20260508011723 49 180 2.0 3.0 0.00 0.18 0.18 53 1015.8
20260508011220 50 198 2.0 3.0 0.00 0.18 0.18 52 1015.6
20260508010716 50 207 2.0 2.0 0.00 0.18 0.18 54 1015.4
20260508010214 51 159 2.0 3.0 0.00 0.18 0.18 54 1015.4
20260508005711 51 189 1.0 2.0 0.00 0.18 0.18 49 1015.3
20260508005208 51 182 2.0 3.0 0.00 0.18 0.18 50 1015.3
20260508004703 52 187 2.0 2.0 0.00 0.18 0.18 48 1015.3
20260508004200 52 153 0.0 2.0 0.00 0.18 0.18 46 1015.1
20260508003657 52 173 2.0 2.0 0.00 0.18 0.18 45 1014.9
20260508003154 53 184 1.0 2.0 0.00 0.18 0.18 45 1014.9
20260508002650 53 161 1.0 3.0 0.00 0.18 0.18 44 1014.8
20260508002148 53 168 2.0 2.0 0.00 0.18 0.18 46 1014.8
20260508001643 53 226 1.0 2.0 0.00 0.18 0.18 47 1014.5
20260508001139 54 184 2.0 3.0 0.00 0.18 0.18 44 1014.5
20260508000635 54 178 1.0 2.0 0.00 0.18 0.18 43 1014.6
20260508000133 55 204 0.0 2.0 0.00 0.18 0.18 42 1014.6
20260507235630 55 145 1.0 2.0 0.00 0.18 0.18 40 1014.6
20260507235127 55 207 0.0 2.0 0.00 0.18 0.18 41 1014.5
20260507234624 55 208 0.0 2.0 0.00 0.18 0.18 42 1014.4
20260507234120 56 142 0.0 3.0 0.00 0.18 0.18 45 1014.4
20260507233617 56 118 1.0 2.0 0.00 0.18 0.18 43 1014.4
20260507233116 56 240 1.0 5.0 0.00 0.18 0.18 39 1014.3
20260507232612 56 302 0.0 2.0 0.00 0.18 0.18 41 1014.2
20260507232109 56 221 1.0 2.0 0.00 0.18 0.18 40 1014.0
20260507231605 56 177 3.0 4.0 0.00 0.18 0.18 41 1014.3
20260507231102 57 219 2.0 6.0 0.00 0.18 0.18 40 1014.3
20260507230559 57 300 2.0 4.0 0.00 0.18 0.18 38 1014.0
20260507230055 57 50 1.0 2.0 0.00 0.18 0.18 39 1014.2
20260507225550 57 325 3.0 3.0 0.00 0.18 0.18 41 1014.1
20260507225047 57 236 3.0 3.0 0.00 0.18 0.18 43 1014.2
20260507224543 58 248 1.0 2.0 0.00 0.18 0.18 42 1014.2
20260507224040 58 234 0.0 2.0 0.00 0.18 0.18 40 1014.1
20260507223536 59 247 1.0 3.0 0.00 0.18 0.18 36 1014.0
20260507223033 59 204 2.0 4.0 0.00 0.18 0.18 38 1014.0
20260507222530 59 42 2.0 5.0 0.00 0.18 0.18 35 1013.9
20260507222026 59 234 3.0 5.0 0.00 0.18 0.18 35 1014.3
20260507221523 60 322 2.0 4.0 0.00 0.18 0.18 37 1014.1
20260507221020 60 254 2.0 4.0 0.00 0.18 0.18 36 1014.0
20260507220517 61 336 2.0 4.0 0.00 0.18 0.18 36 1014.1